DB0WGS-1 Weather Reports


Display with metric or nautical units.
time (UTC)temp
F
wind
direction
speed
MPH
gust
MPH
rain 1hr
in
rain 24hr
in
rain mn
in
humidity
%
barometer
mb
20260507124611 32 9.0 17.0 0.00 0.20 0.00 100 1011.7
20260507123523 32 8.0 13.0 0.00 0.20 0.00 100 1011.7
20260507123404 32 8.0 13.0 0.00 0.20 0.00 100 1011.7
20260507122157 32 7.0 12.0 0.00 0.20 0.00 100 1011.8
20260507121029 32 7.0 11.0 0.00 0.20 0.00 100 1011.8
20260507120955 32 7.0 11.0 0.00 0.20 0.00 100 1011.8
20260507115746 32 7.0 11.0 0.00 0.20 0.20 100 1011.8
20260507114539 32 9.0 15.0 0.00 0.20 0.20 100 1011.9
20260507113334 32 8.0 15.0 0.00 0.20 0.20 100 1012.0
20260507112614 32 7.0 11.0 0.00 0.20 0.20 100 1012.0
20260507112128 32 7.0 11.0 0.00 0.20 0.20 100 1012.0
20260507111116 32 9.0 15.0 0.00 0.20 0.20 100 1012.0
20260507110922 32 9.0 15.0 0.00 0.20 0.20 100 1012.0
20260507105715 32 9.0 13.0 0.00 0.20 0.20 100 1012.0
20260507104732 32 10.0 15.0 0.00 0.20 0.20 100 1012.0
20260507104509 32 10.0 15.0 0.00 0.20 0.20 100 1012.0
20260507103842 32 8.0 13.0 0.00 0.20 0.20 100 1011.9
20260507103303 32 8.0 13.0 0.00 0.20 0.20 100 1011.9
20260507102232 32 10.0 16.0 0.00 0.20 0.20 100 1011.8
20260507102058 32 10.0 16.0 0.00 0.20 0.20 100 1011.8
20260507100850 32 10.0 15.0 0.00 0.20 0.20 100 1011.8
20260507095645 32 9.0 15.0 0.00 0.20 0.20 100 1011.7
20260507094701 32 11.0 16.0 0.00 0.20 0.20 100 1011.6
20260507094439 32 11.0 16.0 0.00 0.20 0.20 100 1011.6
20260507093238 32 11.0 16.0 0.00 0.20 0.20 100 1011.5
20260507092125 32 11.0 17.0 0.00 0.20 0.20 100 1011.5
20260507092026 32 11.0 17.0 0.00 0.20 0.20 100 1011.5
20260507090948 32 10.0 17.0 0.00 0.20 0.20 100 1011.4
20260507090820 32 10.0 17.0 0.00 0.20 0.20 100 1011.4
20260507085614 32 9.0 15.0 0.00 0.20 0.20 100 1011.4
20260507084409 32 9.0 16.0 0.00 0.20 0.20 100 1011.3
20260507083202 32 11.0 16.0 0.00 0.20 0.20 100 1011.1
20260507081956 32 12.0 18.0 0.00 0.20 0.20 100 1011.1
20260507080750 32 12.0 17.0 0.00 0.20 0.20 100 1011.0
20260507075544 32 10.0 15.0 0.00 0.20 0.20 100 1011.0
20260507074338 32 11.0 16.0 0.00 0.20 0.20 100 1010.8
20260507073132 32 10.0 16.0 0.00 0.20 0.20 100 1010.9
20260507071926 32 9.0 13.0 0.00 0.20 0.20 100 1010.9
20260507070720 32 8.0 11.0 0.00 0.20 0.20 100 1010.8
20260507065513 32 8.0 10.0 0.00 0.20 0.20 100 1010.9
20260507064307 32 9.0 12.0 0.00 0.20 0.20 100 1010.9
20260507063101 32 9.0 12.0 0.00 0.20 0.20 100 1010.8
20260507061855 32 9.0 13.0 0.00 0.20 0.20 100 1010.7
20260507060648 7 9.0 15.0 0.00 0.20 0.20 5 1010.5
20260507055443 -40 9.0 13.0 0.00 0.20 0.20 14 1010.4
20260507054237 -40 9.0 13.0 0.00 0.20 0.20 14 1010.3
20260507053031 -40 8.0 11.0 0.00 0.20 0.20 14 1010.2
20260507051825 -40 7.0 11.0 0.00 0.20 0.20 14 1010.1
20260507050620 -40 8.0 11.0 0.00 0.20 0.20 14 1010.0
20260507045413 -40 8.0 12.0 0.00 0.20 0.20 14 1009.8
20260507044207 -40 8.0 13.0 0.00 0.20 0.20 14 1009.6
20260507043000 -40 8.0 10.0 0.00 0.20 0.20 14 1009.4
20260507041754 -40 8.0 12.0 0.00 0.20 0.20 14 1009.4
20260507040549 -40 7.0 11.0 0.00 0.20 0.20 14 1009.3
20260507035343 -40 7.0 11.0 0.00 0.20 0.20 14 1009.2
20260507034136 -40 5.0 8.0 0.00 0.20 0.20 14 1009.1
20260507032930 -40 5.0 8.0 0.00 0.20 0.20 14 1009.1
20260507031724 -40 5.0 8.0 0.00 0.20 0.20 14 1009.0
20260507030518 -40 6.0 10.0 0.00 0.20 0.20 14 1009.0
20260507025312 -40 7.0 10.0 0.00 0.20 0.20 14 1008.9
20260507024106 -40 5.0 8.0 0.00 0.20 0.20 14 1009.0
20260507022859 -40 6.0 10.0 0.00 0.20 0.20 14 1009.0
20260507021655 -40 6.0 10.0 0.00 0.20 0.20 14 1009.0
20260507020448 -40 6.0 10.0 0.00 0.20 0.20 14 1009.0
20260507015241 -40 7.0 11.0 0.00 0.20 0.20 14 1009.0
20260507014035 -40 6.0 10.0 0.00 0.20 0.20 14 1008.9
20260507012830 -40 6.0 11.0 0.00 0.20 0.20 14 1008.8
20260507011623 -40 6.0 10.0 0.00 0.20 0.20 14 1008.7
20260507010417 -40 7.0 10.0 0.00 0.20 0.20 14 1008.6
20260507005211 -40 6.0 10.0 0.00 0.20 0.20 14 1008.5
20260507004006 -40 7.0 10.0 0.00 0.20 0.20 14 1008.5
20260507002758 -40 7.0 11.0 0.00 0.20 0.20 14 1008.5
20260507001553 -40 7.0 10.0 0.00 0.20 0.20 14 1008.6
20260507000347 -40 7.0 11.0 0.00 0.20 0.20 14 1008.5
20260506235143 -40 7.0 10.0 0.00 0.20 0.20 14 1008.4
20260506233934 -40 7.0 11.0 0.00 0.20 0.20 14 1008.4
20260506232728 -40 5.0 10.0 0.00 0.20 0.20 14 1008.3
20260506231523 -40 7.0 13.0 0.00 0.20 0.20 14 1008.2
20260506230316 -40 8.0 15.0 0.00 0.20 0.20 14 1008.2
20260506225110 -40 8.0 12.0 0.00 0.20 0.20 14 1008.2
20260506223904 -40 8.0 15.0 0.00 0.20 0.20 14 1008.0
20260506222659 -40 7.0 15.0 0.00 0.20 0.20 14 1008.0
20260506221452 -40 7.0 12.0 0.00 0.20 0.20 14 1007.7
20260506220245 -40 8.0 13.0 0.00 0.20 0.20 14 1007.5
20260506215040 -40 10.0 16.0 0.00 0.20 0.20 14 1007.2
20260506213835 -40 9.0 15.0 0.00 0.20 0.20 14 1007.3
20260506212629 -40 11.0 18.0 0.00 0.20 0.20 14 1007.2
20260506211526 -40 12.0 19.0 0.00 0.20 0.20 14 1006.9
20260506211421 -40 12.0 19.0 0.00 0.20 0.20 14 1006.9
20260506210216 -40 12.0 19.0 0.00 0.20 0.20 14 1006.9
20260506205010 -40 10.0 16.0 0.00 0.20 0.20 14 1006.9
20260506203937 -40 10.0 17.0 0.00 0.20 0.20 14 1006.8
20260506203804 -40 10.0 17.0 0.00 0.20 0.20 14 1006.8
20260506203521 -40 11.0 18.0 0.00 0.20 0.20 14 1006.6
20260506202559 -40 11.0 18.0 0.00 0.20 0.20 14 1006.6
20260506202130 -40 10.0 19.0 0.00 0.20 0.20 14 1006.2
20260506201351 -40 10.0 19.0 0.00 0.20 0.20 14 1006.2
20260506200145 -40 4.0 6.0 0.00 0.20 0.20 14 1005.8
20260506194939 -40 3.0 5.0 0.00 0.21 0.20 14 1005.6
20260506193838 -40 5.0 8.0 0.02 0.23 0.20 14 1005.4
20260506193735 -40 5.0 8.0 0.02 0.23 0.20 14 1005.4
20260506193111 -40 4.0 5.0 0.02 0.24 0.20 14 1005.2
20260506192526 -40 4.0 5.0 0.02 0.24 0.20 14 1005.2
20260506191502 -40 5.0 11.0 0.03 0.25 0.20 14 1004.9
20260506191321 -40 305.0 11.0 0.03 0.25 0.20 14 1004.9
20260506190422 -40 8.0 18.0 0.07 0.25 0.20 14 1003.9
20260506190116 -40 8.0 18.0 0.07 0.25 0.20 14 1003.9
20260506184908 -40 8.0 20.0 0.09 0.25 0.20 14 1004.0
20260506183922 -40 5.0 11.0 0.17 0.23 0.17 14 1004.5
20260506183703 -40 5.0 11.0 0.17 0.23 0.17 14 1004.5
20260506182457 -40 6.0 9.0 0.17 0.23 0.17 14 1004.5
20260506181423 -40 6.0 12.0 0.16 0.22 0.16 14 1004.7
20260506181251 -40 6.0 12.0 0.16 0.22 0.16 14 1004.7
20260506180119 -40 12.0 24.0 0.12 0.18 0.12 14 1004.2
20260506180044 -40 12.0 24.0 0.12 0.18 0.12 14 1004.2
20260506175040 -40 18.0 36.0 0.10 0.16 0.10 14 1003.1
20260506174838 -40 18.0 36.0 0.10 0.16 0.10 14 1003.1
20260506173632 -40 15.0 31.0 0.00 0.05 0.00 14 1002.4
20260506172426 -40 2.0 4.0 0.00 0.05 0.00 14 1001.7
20260506171220 -40 1.0 4.0 0.00 0.05 0.00 14 1001.2
20260506170016 -40 1.0 4.0 0.00 0.05 0.00 14 1001.1
20260506164807 -40 2.0 4.0 0.00 0.05 0.00 14 1001.0
20260506163602 -40 1.0 5.0 0.00 0.05 0.00 14 1001.4
20260506162513 -40 2.0 6.0 0.00 0.05 0.00 14 1001.8
20260506162357 -40 2.0 6.0 0.00 0.05 0.00 14 1001.8
20260506161530 -40 3.0 9.0 0.00 0.05 0.00 14 1002.0
20260506161149 -40 3.0 9.0 0.00 0.05 0.00 14 1002.0
20260506155943 -40 2.0 8.0 0.00 0.05 0.00 14 1002.1
20260506154738 -40 3.0 8.0 0.00 0.05 0.00 14 1002.1
20260506153531 -40 2.0 4.0 0.00 0.05 0.00 14 1002.4
20260506152329 -40 2.0 6.0 0.00 0.05 0.00 14 1002.5
20260506151119 -40 2.0 6.0 0.00 0.05 0.00 14 1002.6
20260506145913 -40 1.0 5.0 0.00 0.05 0.00 14 1002.8
20260506144706 -40 3.0 8.0 0.00 0.05 0.00 14 1002.8
20260506143500 -40 2.0 9.0 0.00 0.05 0.00 14 1002.9
20260506142255 -40 4.0 10.0 0.00 0.05 0.00 14 1003.1
20260506141048 -40 5.0 13.0 0.00 0.05 0.00 14 1003.3
20260506135842 -40 4.0 15.0 0.00 0.05 0.00 14 1003.4
20260506134636 -40 5.0 11.0 0.00 0.05 0.00 14 1003.6
20260506133430 -40 3.0 9.0 0.00 0.05 0.00 14 1003.7
20260506132224 -40 4.0 10.0 0.00 0.05 0.00 14 1003.8
20260506131018 -40 5.0 10.0 0.00 0.05 0.00 14 1004.0
20260506125812 -40 3.0 11.0 0.00 0.05 0.00 14 1004.2